Regional Weather Roundup
Issued by NWS

Home | Current Version | Previous Version | Graphics & Text | Print | Product List | Glossary On
Versions: 1 2 3 4 5 6 7 8 9 10 11 12 13 14 15 16 17 18 19 20 21 22 23 24 25 26 27 28 29 30 31 32 33 34 35 36 37 38 39 40 41 42 43 44 45 46 47 48 49 50
000
ASUS43 KMKX 300711
RWRWI

WISCONSIN REGIONAL WEATHER ROUNDUP
NATIONAL WEATHER SERVICE MILWAUKEE/SULLIVAN WI
200 AM CDT TUE AUG 30 2016

NOTE: "FAIR" INDICATES FEW OR NO CLOUDS BELOW 12,000 FEET WITH NO
SIGNIFICANT WEATHER AND/OR OBSTRUCTIONS TO VISIBILITY.

WIZ001-002-006>008-014>016-023>028-300800-
NORTHWEST WISCONSIN

CITY           SKY/WX    TMP DP  RH WIND       PRES   REMARKS
SUPERIOR ARPT  CLOUDY    67  64  93 SW8       30.15S
ASHLAND        CLOUDY    67  64  90 SW7       30.14F
HAYWARD        CLOUDY    65  64  97 CALM      30.18R
SIREN          CLOUDY    65  64  96 CALM      30.18R
CUMBERLAND     LGT RAIN  70  55  60 W10G20    30.17R
RICE LAKE      LGT RAIN  65  64  96 SW18G28   30.13F
CHETEK         NOT AVBL
LADYSMITH      LGT RAIN  67  62  84 S10       30.16F
EAU CLAIRE     CLOUDY    66  65  96 W5        30.18F
MENOMONIE      CLOUDY    67  66  94 W3        30.21F
NEW RICHMOND   RAIN      67  67  99 SW6       30.23R
OSCEOLA        RAIN      68  68 100 S26       30.16F
$$

WIZ003>005-009-010-017-018-300800-
NORTH CENTRAL WISCONSIN

CITY           SKY/WX    TMP DP  RH WIND       PRES   REMARKS
MANITOWISH WTR NOT AVBL
ARBOR VITAE    CLOUDY    72  69  92 W5        30.16F
WOODRUFF       CLOUDY    72  69  92 W5        30.16F
RHINELANDER    CLOUDY    72  72 100 NW6       30.19R
EAGLE RIVER    CLOUDY    69  69  99 SW3       30.16F
LAND O LAKES   CLOUDY    70  69  97 SW3       30.16F
PHILLIPS       DRIZZLE   65  62  91 SW7       30.13F
TOMAHAWK       CLOUDY    70  68  93 CALM      30.17F
MEDFORD        CLOUDY    67  65  93 W6        30.18F
MERRILL        CLOUDY    72  72  99 W5        30.18S
$$

WIZ029-030-035-036-043>047-300800-
CENTRAL WISCONSIN

CITY           SKY/WX    TMP DP  RH WIND       PRES   REMARKS
WAUSAU         CLOUDY    72  70  93 SW7       30.16S
MOSINEE        MOCLDY    70  70 100 W7        30.19S FOG
MARSHFIELD     CLOUDY    71  69  93 W8        30.18S FOG
STEVENS POINT  PTCLDY    68  68 100 SW3       30.18S
WAUPACA        MOCLDY    69  69  99 CALM      30.17S FOG
WAUTOMA        MOCLDY    67  66  97 CALM      30.18S
WISC RAPIDS    CLOUDY    69  69 100 W3        30.19S
CAMP DOUGLAS   CLOUDY    66  66 100 CALM      30.18S
$$

WIZ011>013-019>022-031-037>040-048>050-300800-
NORTHEAST WISCONSIN

CITY           SKY/WX    TMP DP  RH WIND       PRES   REMARKS
ANTIGO         CLOUDY    69  69 100 CALM      30.18F
SHAWANO        PTCLDY    71  68  91 CALM      30.15S
OCONTO         NOT AVBL
STURGEON BAY   CLOUDY    72  69  90 SW7       30.15S
GREEN BAY      MOCLDY    69  69 100 S3        30.16R FOG
MANITOWOC      PTCLDY    69  65  86 SW5       30.16F
APPLETON       PTCLDY    70  70 100 SW8       30.16R
CLINTONVILLE   CLOUDY    70  68  94 SW3       30.15R
OSHKOSH        CLOUDY    70  67  90 SW5       30.17S
$$

WIZ032>034-041-042-053>061-300800-
SOUTHWEST WISCONSIN

CITY           SKY/WX    TMP DP  RH WIND       PRES   REMARKS
LA CROSSE      CLOUDY    71  70  96 S6        30.18S
SPARTA         FOG       64  64 100 S3        30.19F VSB 1/2
VIROQUA        CLOUDY    69  69 100 CALM      30.21S
BOSCOBEL       LGT RAIN  72  71  97 CALM      30.19R FOG
PRAIRIE DU CHI DRZL/FOG  72  71  96 CALM      30.18R VSB 1/4
PLATTEVILLE    MOCLDY    70  70 100 S3        30.20S
$$

WIZ056-057-062-063-064-067-068-300800-
SOUTH CENTRAL WISCONSIN

CITY           SKY/WX    TMP DP  RH WIND       PRES   REMARKS
REEDSBURG      NOT AVBL
BARABOO/DELLS  CLOUDY    69  67  94 CALM      30.19S FOG
LONE ROCK      FOG       71  71 100 CALM      30.19S VSB 1/2
MINERAL POINT  CLOUDY    72  72 100 CALM      30.20S
MADISON        CLOUDY    72  68  87 S5        30.18S
MIDDLETON      CLOUDY    71  70  97 CALM      30.20S
WATERTOWN      CLOUDY    69  69 100 CALM      30.19S
MONROE         PTCLDY    70  68  94 CALM      30.20F
JANESVILLE     CLOUDY    70  68  94 CALM      30.18F FOG
$$

WIZ051-052-058>065-066-070>072-300800-
SOUTHEAST WISCONSIN

CITY           SKY/WX    TMP DP  RH WIND       PRES   REMARKS
MILWAUKEE      MOCLDY    75  67  76 CALM      30.18F
WAUKESHA       PTCLDY    68  64  88 CALM      30.20F
MILWAUKEE/TIMM MOCLDY    70  64  83 CALM      30.18F
RACINE         PTCLDY    72  70  93 CALM      30.19F
BURLINGTON     CLOUDY    65  65  98 CALM      30.19F
KENOSHA        CLOUDY    69  68  96 CALM      30.18F FOG
FOND DU LAC    CLOUDY    69  67  93 S5        30.18F
SHEBOYGAN      CLOUDY    68  65  90 S6        30.16F
WEST BEND      CLOUDY    68  64  88 CALM      30.18F
JUNEAU         MOCLDY    69  67  95 S3        30.20F
$$

LSZ147-162-300800-
LAKE SUPERIOR

STATION/POSITION TIME  TEMP    WIND        PRES    WAVE
                       AIR SEA DIR/SP/G            HT/PER
                 (UTC) (F)     (DEG/KT/KT) (MB)    (FT/S)
W MID LAKE BUOY  0650   69 67  240/ 12/ 14 1018.1F   2/ 4
DEVILS ISLAND    0700   68     230/ 11/ 14 1019.7R
PORT WING        0500   67     190/  4/  5 1019.3F
SAXON HARBOR     0600   68     210/  3/  4 1020.3R
$$

LMZ867-665-643>646-300800-
LAKE MICHIGAN

STATION/POSITION TIME  TEMP    WIND        PRES    WAVE
                       AIR SEA DIR/SP/G            HT/PER
                 (UTC) (F)     (DEG/KT/KT) (MB)    (FT/S)
CHAMBERS ISLAND  0640   73     200/  4/  7 1019.6F
N MID LAKE BUOY  0650   72 71  220/ 12/ 14 1018.9F   2/ 4
NORTHPORT PIER   0600   74     240/  3/  8 1019.6F
SISTER BAY       0607   75     270/ 11/ 13   N/A
KEWAUNEE LAKESHO 0600   69     300/  1/  3 1020.5F
SHEBOYGAN LAKESH 0700   70     210/  6/  7 1020.8F
PORT WASHINGTON  0600   72     180/  2/  3 1022.7R
ATWATER BUOY     0700   71     190/  4/  4   N/A
MILWAUKEE LAKESH 0610   74     230/  5/  5   N/A
S MID LAKE BUOY  0650   76 76  180/  4/  4 1021.3F   0
KENOSHA   LAKESH 0700   74        CALM     1021.3F
$$

TC  - TEMPERATURE IN CELSIUS
VSB - VISIBILITY IN STATUTE MILES
WCI - WIND CHILL INDEX
HX  - HEAT INDEX





USA.gov is the U.S. government's official web portal to all federal, state and local government web resources and services.